Вернуться в каталог

STARLINK-30956

АктивенСвязьVLEO
NORAD 58481·PAYLOAD·🇺🇸 United States

Запущен Dec 3, 2023 с Cape Canaveral Space Force Station

Loading…

Ближайшие Пролёты (ближайшие 24 часа)

TLE

СвежийSource: CelesTrak SupGP

Эпоха: Sep 15, 2026, 02:36 UTC

1 58481C 23186J   26258.10881944 -.00031632  00000+0 -11454-2 0  2585
2 58481  43.0011  51.5372 0001534 266.9617  10.9481 15.27604062    17

Отслеживайте STARLINK-30956 в реальном времени с AllMySat

Download on the App Store